This demonstration page uses our WeatherBlox Daily Observations layout. Learn more.

Left ArrowRight Arrow

39.95238, -75.16362

Hourly Observations for September 7, 2019

Temp ( °F °C ) Dew Point ( °F °C ) Humidity (%) Winds ( mph kmh ) Pressure ( in mb ) Visibility ( mi km ) Precip ( " mm )
12:54 am 00:54 Mostly Clear 60 15.6 54 12.2 80 80 NNW 9 15 29.79 1009 10 16 0.00 0.00
1:54 am 01:54 Mostly Clear 59 15 54 12.2 83 83 NNW 8 13 29.78 1009 10 16 0.00 0.00
2:54 am 02:54 Mostly Clear 58 14.4 53 11.7 84 84 NNW 10 17 29.78 1009 10 16 0.00 0.00
3:54 am 03:54 Clear 58 14.4 53 11.7 84 84 NW 8 13 29.79 1009 10 16 0.00 0.00
4:54 am 04:54 Mostly Clear 58 14.4 52 11.1 81 81 NNW 6 9 29.80 1009 10 16 0.00 0.00
5:54 am 05:54 Mostly Clear 58 14.4 52 11.1 81 81 WNW 7 11 29.83 1010 10 16 0.00 0.00
6:54 am 06:54 Mostly Sunny 58 14.4 52 11.1 81 81 NW 6 9 29.84 1011 10 16 0.00 0.00
7:54 am 07:54 Mostly Sunny 60 15.6 52 11.1 75 75 VRB 3 6 29.86 1011 10 16 0.00 0.00
8:54 am 08:54 Mostly Sunny 63 17.2 52 11.1 68 68 Calm 29.87 1012 10 16 0.00 0.00
9:54 am 09:54 Mostly Sunny 67 19.4 52 11.1 59 59 WSW 7 11 29.87 1012 10 16 0.00 0.00
10:54 am 10:54 Sunny 71 21.7 51 10.6 49 49 WNW 12 19 29.86 1011 10 16 0.00 0.00
11:54 am 11:54 Mostly Sunny 74 23.3 52 11.1 46 46 WNW 13 20 29.85 1011 10 16 0.00 0.00
12:54 pm 12:54 Mostly Sunny 77 25 51 10.6 40 40 WNW 10 17 29.85 1011 10 16 0.00 0.00
1:54 pm 13:54 Mostly Sunny 77 25 52 11.1 42 42 NNW 12 19 29.84 1010 10 16 0.00 0.00
2:54 pm 14:54 Mostly Sunny 79 26.1 53 11.7 41 41 NW 15 24 29.83 1010 10 16 0.00 0.00
3:54 pm 15:54 Mostly Cloudy 78 25.6 53 11.7 42 42 WNW 15 24 29.85 1011 10 16 0.00 0.00
4:54 pm 16:54 Mostly Cloudy 78 25.6 53 11.7 42 42 NW 14 22 29.85 1011 10 16 0.00 0.00
5:54 pm 17:54 Partly Cloudy 77 25 51 10.6 40 40 NW 15 24 29.86 1011 10 16 0.00 0.00
6:54 pm 18:54 Partly Cloudy 76 24.4 52 11.1 43 43 NW 10 17 29.88 1012 10 16 0.00 0.00
7:54 pm 19:54 Mostly Clear 75 23.9 52 11.1 45 45 WNW 5 7 29.90 1012 10 16 0.00 0.00
8:54 pm 20:54 Mostly Clear 74 23.3 53 11.7 48 48 WNW 6 9 29.92 1013 10 16 0.00 0.00
9:54 pm 21:54 Partly Cloudy 71 21.7 59 15 66 66 SSW 6 9 29.93 1013 10 16 0.00 0.00
10:54 pm 22:54 Mostly Cloudy 69 20.6 58 14.4 68 68 WSW 5 7 29.93 1014 10 16 0.00 0.00
11:54 pm 23:54 Partly Cloudy 69 20.6 56 13.3 63 63 W 7 11 29.94 1014 10 16 0.00 0.00

Powered by AerisWeather